Regional Weather Roundup
Issued by NWS

Home | Current Version | Previous Version | Text Only | Print | Product List | Glossary On
Versions: 1 2 3 4 5 6 7 8 9 10 11 12 13 14 15 16 17 18 19 20 21 22 23 24 25 26 27 28 29 30 31 32 33 34 35 36 37 38 39 40 41 42 43 44 45 46 47 48 49 50
000
ASCA44 KEWX 012320
RWRMX

LATIN AMERICA AND CARIBBEAN REGIONAL WEATHER ROUNDUP
NATIONAL WEATHER SERVICE AUSTIN/SAN ANTONIO TX
600 PM CDT WED JUL 01 2015

NOTE: "FAIR" INDICATED FEW OR NO CLOUDS BELOW 12,000 FEET WITH NO
SIGNIFICANT WEATHER AND/OR OBSTRUCTIONS TO VISIBILITY.

BAJA CALIFORNIA

CITY           SKY/WX    TMP DP  RH WIND       PRES   REMARKS
LORETO         MOSUNNY   95  72  46 NE6       29.81F HX 103
LA PAZ         MOSUNNY   91  63  38 N16       29.82F HX  92
MEXICALI       CLOUDY    88  68  51 SE13      29.85F HX  91
S.J. DEL CABO  MOSUNNY   90  72  55 SE15      29.83F HX  96
TIJUANA        CLOUDY    77  63  61 W6        29.94S

NORTHWESTERN MEXICO

CITY           SKY/WX    TMP DP  RH WIND       PRES   REMARKS
CULIACAN       CLOUDY    99  77  49 SW14      29.82S HX 114
DURANGO        LGT RAIN  63  59  88 SE3       30.24F
GUAYMAS        MOSUNNY   91  75  59 W17       29.78F HX 102
HERMOSILLO     MOSUNNY   99  66  34 S6        29.86F HX 102
CD. JUAREZ     MOSUNNY   99  57  25 S9        29.92F HX  97
LOS MOCHIS     PTSUNNY   90  68  48 W15       29.82S HX  93
OBREGON        MOSUNNY   97  70  41 NW8       29.78F HX 103

NORTHEASTERN MEXICO

CITY           SKY/WX    TMP DP  RH WIND       PRES   REMARKS
CHIHUAHUA      PTSUNNY   93  50  22 E9        30.02F HX  90
MATAMOROS      CLOUDY    79  70  73 SE7       30.02F
MONCLOVA       PTSUNNY   86  68  54 NE12      29.93
MONTERREY      PTSUNNY   79  68  69 SE6       29.95F
NUEVO LAREDO   PTSUNNY   84  70  61 SE12      29.97F
PIEDRAS NEGRAS MOSUNNY   88  72  58 SE12      29.96F HX  94
REYNOSA        PTSUNNY   77  66  69 SE9       29.97F
SALTILLO       PTSUNNY   75  61  60 N14       30.13S
TORREON        PTSUNNY   88  59  37 CALM      30.00F
CD. VICTORIA   CLOUDY    73  63  68 SW12      30.01F

WESTERN MEXICO

CITY           SKY/WX    TMP DP  RH WIND       PRES   REMARKS
AGUASCALIENTES PTSUNNY   68  54  60 W5        30.18F
COLIMA         PTSUNNY   84  66  54 W12       29.94
DEL BAJIO        N/A    N/A N/A N/A MISG        N/A
GUADALAJARA    MOSUNNY   82  54  36 S13       30.07F
MANZANILLO     MOSUNNY   90  77  66 W12       29.76F HX 102
MAZATLAN       MOSUNNY   88  72  58 W14       29.80S HX  94
P. VALLARTA    MOSUNNY   88  77  70 SW10      29.80F HX 100
URUAPAN        PTSUNNY   73  61  64 S7        30.11F
ZACATECAS      CLOUDY    63  55  77 NE8       30.25S

CENTRAL MEXICO

CITY           SKY/WX    TMP DP  RH WIND       PRES   REMARKS
CUERNAVACA     PTSUNNY   77  63  61 CALM      30.06F
MEXICO CITY    TSTM      59  52  77 N16       30.26R
MORELIA        PTSUNNY   72  59  64 W12       30.15R
POZA RICA      CLOUDY    84  75  74 E12       29.95R HX  92
PUEBLA         PTSUNNY   68  46  45 S7        30.26F
QUERETARO      PTSUNNY   72  55  56 E15       30.22S
S. LUIS POTOSI CLOUDY    70  55  60 N6        30.19S
TAMPICO        LGT RAIN  75  72  88 N6        29.95F HAZE
TOLUCA         PTSUNNY   64  50  59 S6        30.32F

SOUTHERN MEXICO

CITY           SKY/WX    TMP DP  RH WIND       PRES   REMARKS
ACAPULCO       MOSUNNY   90  79  70 W10       29.78F HX 105
B. DE HUATULCO RAIN      75  72  88 CALM      29.91S
OAXACA         PTSUNNY   79  55  44 NW9       30.08F
P. ESCONDIDO   CLOUDY    84  77  79 S7        29.93S HX  94
VERACRUZ       PTSUNNY   82  75  78 E10       29.89F
ZIHUATANEJO    PTSUNNY   93  77  59 SW9       29.79F HX 107

YUCATAN PENINSULA

CITY           SKY/WX    TMP DP  RH WIND       PRES   REMARKS
CAMPECHE       PTSUNNY   90  73  58 E12       29.88F HX  98
CANCUN         MOSUNNY   86  79  79 E8        30.00R HX  99
CHETUMAL       PTSUNNY   88  77  70 E12       29.94F HX 100
CD. DEL CARMEN CLOUDY    93  68  43 E9        29.87F HX  97
COZUMEL        PTSUNNY   72  72 100 CALM      30.00R
MERIDA         CLOUDY    90  75  62 E16       29.94R HX 100
MINATITLAN     PTSUNNY   82  68  61 N12       29.80F
TAPACHULA      MOSUNNY   88  77  70 W12       29.82S HX 100
TUX. GUTIERREZ PTSUNNY   86  64  48 CALM      29.87F
VILLAHERMOSA   MOSUNNY   93  64  38 E22       29.85S HX  95

CENTRAL AMERICA

CITY           SKY/WX    TMP DP  RH WIND       PRES   REMARKS
BELIZE CITY    MOSUNNY   86  77  74 E10       29.93F HX  97
MANAGUA        PTCLDY    90  72  55 E16       29.77S HX  96

CARIBBEAN

CITY           SKY/WX    TMP DP  RH WIND       PRES   REMARKS
ARUBA          PTCLDY    82  77  83 E24G36    29.89R HX  91
CURACAO        PTCLDY    82  73  74 E13       29.94R
KINGSTON       PTCLDY    86  73  66 SE26      29.92S HX  93
NASSAU         PTSUNNY   86  73  66 E8        30.11R HX  93
SAN JUAN       PTCLDY    82  73  74 E14       30.07R
SANTO DOMINGO  RAIN      77  75  94 NE7       30.00S
ST. CROIX      PTCLDY    82  72  69 E18       30.06R
ST. KITTS      PTCLDY    82  73  74 NE18      30.06R
ST. MAARTEN    PTCLDY    82  72  69 E10       30.06S
ST. THOMAS     CLOUDY    82  72  69 E15G23    30.06R

$$



USA.gov is the U.S. government's official web portal to all federal, state and local government web resources and services.